Weather History for Canby, MN

Change the Weather History Date:

Sunday, January 12, 2014

  Actual Average (KMML) Record (KMML)
Temperature  
Mean Temperature 38 °F -  
Max Temperature 41 °F 19 °F 57 °F (1987)
Min Temperature 34 °F 1 °F -22 °F (1977)
Degree Days  
Heating Degree Days 27    
Moisture  
Dew Point 30 °F    
Average Humidity 71    
Maximum Humidity 82    
Minimum Humidity 55    
Precipitation  
Precipitation 0.00 in - - ()
Sea Level Pressure  
Sea Level Pressure 29.42 in    
Wind  
Wind Speed 14 mph (WSW)    
Max Wind Speed 21 mph    
Max Gust Speed 32 mph    
Visibility 10 miles    
Events      
Averages and records for this station are not official NWS values.
T = Trace of Precipitation, MM = Missing Value Source: NWS Daily Summary

Daily Weather History Graph

Daily Weather History Graph

Search for Another Location

Airport:

Trip Planner

Search our weather history database for the weather conditions in past years. The results will help you decide how hot, cold, wet, or windy it might be!

Date:

Astronomy

Jan. 12, 2014 Rise Set
Actual Time 8:00 AM CST 5:06 PM CST
Civil Twilight 7:27 AM CST 5:39 PM CST
Nautical Twilight 6:51 AM CST 6:16 PM CST
Astronomical Twilight 6:16 AM CST 6:51 PM CST
Moon 2:36 PM CST (1/12) 4:58 AM CST (1/12)
Length of Visible Light 10h 12m
Length of Day
9h 06m
Waxing Gibbous, 90% of the Moon is Illuminated
Jan 12
Waxing Gibbous
Jan 15
Full
Jan 23
Last Quarter
Jan 30
New
Feb 6
First Quarter

Hourly Weather History & Observations

Time (CST) Temp. Windchill Dew Point Humidity Pressure Visibility Wind Dir Wind Speed Gust Speed Precip Events Conditions
12:14 AM 38.3 °F 29.0 °F 24.8 °F 58% 29.45 in 10.0 mi SSW 17.3 mph 25.3 mph N/A   Clear
12:35 AM 39.7 °F 30.0 °F 24.6 °F 55% 29.42 in 10.0 mi SSW 20.7 mph 26.5 mph N/A   Clear
12:55 AM 39.2 °F 29.8 °F 24.8 °F 56% 29.41 in 10.0 mi South 18.4 mph 25.3 mph N/A   Clear
1:14 AM 38.1 °F 28.1 °F 24.8 °F 59% 29.39 in 10.0 mi South 19.6 mph 27.6 mph N/A   Clear
1:34 AM 36.9 °F 28.2 °F 25.5 °F 64% 29.38 in 10.0 mi South 13.8 mph 21.9 mph N/A   Clear
1:55 AM 36.7 °F 29.9 °F 26.6 °F 67% 29.37 in 10.0 mi SSE 9.2 mph - N/A   Mostly Cloudy
2:15 AM 39.6 °F 30.0 °F 26.6 °F 60% 29.34 in 10.0 mi SSW 19.6 mph 28.8 mph N/A   Overcast
2:35 AM 39.7 °F 31.2 °F 27.1 °F 61% 29.33 in 10.0 mi SSW 16.1 mph 25.3 mph N/A   Overcast
2:54 AM 39.4 °F 29.8 °F 27.3 °F 62% 29.32 in 10.0 mi SSW 19.6 mph 28.8 mph N/A   Overcast
3:14 AM 39.4 °F 29.5 °F 27.5 °F 62% 29.31 in 10.0 mi SSW 20.7 mph 27.6 mph N/A   Overcast
3:35 AM 39.2 °F 30.5 °F 27.5 °F 63% 29.29 in 10.0 mi SSW 16.1 mph 32.2 mph N/A   Overcast
3:54 AM 38.7 °F 30.5 °F 27.7 °F 65% 29.30 in 10.0 mi SSW 13.8 mph 31.1 mph N/A   Overcast
4:15 AM 38.7 °F 35.2 °F 27.7 °F 65% 29.31 in 10.0 mi West 4.6 mph - N/A   Overcast
4:34 AM 38.5 °F 35.0 °F 27.5 °F 65% 29.30 in 10.0 mi SW 4.6 mph - N/A   Overcast
4:55 AM 37.9 °F 29.2 °F 28.0 °F 68% 29.28 in 10.0 mi SW 15.0 mph 19.6 mph N/A   Scattered Clouds
5:14 AM 37.6 °F 29.1 °F 27.9 °F 68% 29.30 in 10.0 mi WSW 13.8 mph 23.0 mph N/A   Clear
5:35 AM 36.9 °F 27.8 °F 27.7 °F 69% 29.31 in 10.0 mi WSW 15.0 mph 25.3 mph N/A   Clear
5:55 AM 36.9 °F 28.7 °F 27.9 °F 70% 29.30 in 10.0 mi SW 12.7 mph 19.6 mph N/A   Clear
6:15 AM 37.4 °F 32.8 °F 28.0 °F 69% 29.28 in 10.0 mi WSW 5.8 mph - N/A   Clear
6:34 AM 37.6 °F 31.6 °F 28.4 °F 69% 29.28 in 10.0 mi WSW 8.1 mph - N/A   Clear
6:55 AM 37.2 °F 29.6 °F 28.9 °F 72% 29.29 in 10.0 mi WSW 11.5 mph - N/A   Clear
7:15 AM 35.8 °F 28.3 °F 28.2 °F 74% 29.30 in 10.0 mi WSW 10.4 mph - N/A   Clear
7:35 AM 36.3 °F 27.1 °F 28.4 °F 73% 29.30 in 10.0 mi WSW 15.0 mph 20.7 mph N/A   Mostly Cloudy
7:54 AM 36.9 °F 27.5 °F 29.1 °F 74% 29.34 in 10.0 mi West 16.1 mph 21.9 mph N/A   Mostly Cloudy
8:14 AM 37.0 °F 27.7 °F 29.3 °F 74% 29.35 in 10.0 mi West 16.1 mph - N/A   Scattered Clouds
8:35 AM 36.5 °F 28.2 °F 30.0 °F 77% 29.36 in 10.0 mi West 12.7 mph - N/A   Clear
8:54 AM 36.7 °F 32.0 °F 30.7 °F 79% 29.36 in 10.0 mi West 5.8 mph - N/A   Clear
9:15 AM 38.3 °F 30.9 °F 31.6 °F 77% 29.37 in 10.0 mi West 11.5 mph - N/A   Clear
9:34 AM 39.4 °F 32.7 °F 32.0 °F 75% 29.37 in 10.0 mi West 10.4 mph - N/A   Clear
9:54 AM 40.1 °F 33.6 °F 31.8 °F 72% 29.38 in 10.0 mi WNW 10.4 mph - N/A   Clear
10:15 AM 40.6 °F 33.4 °F 31.8 °F 71% 29.39 in 10.0 mi WNW 12.7 mph - N/A   Clear
10:34 AM 41.2 °F 35.0 °F 31.3 °F 68% 29.40 in 10.0 mi WNW 10.4 mph - N/A   Clear
10:55 AM 41.4 °F 34.7 °F 31.1 °F 67% 29.40 in 10.0 mi West 11.5 mph - N/A   Clear
11:14 AM 41.5 °F 34.2 °F 31.1 °F 66% 29.40 in 10.0 mi West 13.8 mph - N/A   Clear
11:34 AM 40.8 °F 34.5 °F 31.3 °F 69% 29.40 in 10.0 mi NW 10.4 mph - N/A   Clear
11:55 AM 41.4 °F 33.3 °F 30.7 °F 66% 29.40 in 10.0 mi West 16.1 mph - N/A   Clear
12:15 PM 41.9 °F 34.0 °F 30.4 °F 64% 29.40 in 10.0 mi West 16.1 mph 23.0 mph N/A   Clear
12:34 PM 41.5 °F 33.8 °F 30.6 °F 65% 29.39 in 10.0 mi West 15.0 mph - N/A   Clear
12:55 PM 41.5 °F 34.2 °F 30.9 °F 66% 29.40 in 10.0 mi West 13.8 mph - N/A   Clear
1:15 PM 41.2 °F 33.7 °F 30.9 °F 67% 29.39 in 10.0 mi West 13.8 mph - N/A   Clear
1:35 PM 41.2 °F 34.5 °F 31.1 °F 67% 29.39 in 10.0 mi West 11.5 mph - N/A   Clear
1:54 PM 41.5 °F 34.6 °F 31.1 °F 66% 29.39 in 10.0 mi West 12.7 mph - N/A   Clear
2:14 PM 41.4 °F 35.2 °F 31.3 °F 67% 29.40 in 10.0 mi WSW 10.4 mph - N/A   Clear
2:35 PM 40.8 °F 34.1 °F 31.1 °F 68% 29.40 in 10.0 mi WSW 11.5 mph - N/A   Clear
2:54 PM 40.3 °F 33.9 °F 31.5 °F 71% 29.40 in 10.0 mi WSW 10.4 mph - N/A   Clear
3:15 PM 39.6 °F 32.1 °F 31.6 °F 73% 29.42 in 10.0 mi WSW 12.7 mph - N/A   Clear
3:34 PM 39.6 °F 31.7 °F 31.5 °F 73% 29.44 in 10.0 mi WSW 13.8 mph 20.7 mph N/A   Clear
3:55 PM 40.6 °F 32.7 °F 30.6 °F 67% 29.45 in 10.0 mi SW 15.0 mph 21.9 mph N/A   Clear
4:14 PM 39.0 °F 31.4 °F 31.6 °F 75% 29.47 in 10.0 mi SW 12.7 mph 17.3 mph N/A   Clear
4:35 PM 38.5 °F 30.3 °F 31.8 °F 77% 29.48 in 10.0 mi WSW 13.8 mph 19.6 mph N/A   Clear
4:54 PM 37.9 °F 29.2 °F 31.6 °F 78% 29.49 in 10.0 mi SW 15.0 mph 20.7 mph N/A   Clear
5:15 PM 37.9 °F 29.6 °F 31.5 °F 77% 29.49 in 10.0 mi WSW 13.8 mph 19.6 mph N/A   Clear
5:35 PM 37.4 °F 29.3 °F 31.6 °F 80% 29.50 in 10.0 mi WSW 12.7 mph - N/A   Clear
5:54 PM 37.6 °F 29.6 °F 31.1 °F 77% 29.50 in 10.0 mi WSW 12.7 mph - N/A   Clear
6:14 PM 37.9 °F 30.0 °F 31.1 °F 76% 29.50 in 10.0 mi WSW 12.7 mph - N/A   Clear
6:35 PM 37.6 °F 28.8 °F 31.5 °F 79% 29.50 in 10.0 mi WSW 15.0 mph - N/A   Clear
6:54 PM 37.4 °F 28.9 °F 31.3 °F 79% 29.50 in 10.0 mi WSW 13.8 mph - N/A   Clear
7:15 PM 36.9 °F 27.8 °F 31.5 °F 81% 29.51 in 10.0 mi WSW 15.0 mph 20.7 mph N/A   Clear
7:34 PM 36.9 °F 27.8 °F 31.3 °F 80% 29.52 in 10.0 mi West 15.0 mph - N/A   Clear
7:55 PM 37.0 °F 28.1 °F 31.1 °F 79% 29.53 in 10.0 mi WSW 15.0 mph 19.6 mph N/A   Clear
8:15 PM 36.5 °F 27.8 °F 30.9 °F 80% 29.53 in 10.0 mi WSW 13.8 mph - N/A   Clear
8:35 PM 36.7 °F 29.4 °F 31.1 °F 80% 29.54 in 10.0 mi WSW 10.4 mph - N/A   Clear
8:55 PM 37.0 °F 31.0 °F 31.1 °F 79% 29.54 in 10.0 mi WSW 8.1 mph 16.1 mph N/A   Clear
9:14 PM 36.5 °F 29.7 °F 30.7 °F 80% 29.54 in 10.0 mi WSW 9.2 mph - N/A   Clear
9:34 PM 35.8 °F 26.9 °F 30.9 °F 82% 29.55 in 10.0 mi WSW 13.8 mph - N/A   Clear
9:55 PM 36.5 °F 27.4 °F 30.7 °F 80% 29.54 in 10.0 mi West 15.0 mph - N/A   Clear
10:14 PM 36.5 °F 27.8 °F 30.2 °F 78% 29.56 in 10.0 mi West 13.8 mph 20.7 mph N/A   Clear
10:35 PM 36.0 °F 26.7 °F 30.2 °F 80% 29.57 in 10.0 mi West 15.0 mph - N/A   Clear
10:55 PM 35.6 °F 25.9 °F 29.8 °F 80% 29.56 in 10.0 mi West 16.1 mph 23.0 mph N/A   Clear
11:14 PM 35.6 °F 27.1 °F 29.3 °F 78% 29.56 in 10.0 mi West 12.7 mph 20.7 mph N/A   Clear
11:35 PM 35.4 °F 24.9 °F 29.3 °F 78% 29.56 in 10.0 mi West 18.4 mph 24.2 mph N/A   Clear
11:55 PM 34.7 °F 24.7 °F 29.3 °F 81% 29.57 in 10.0 mi WNW 16.1 mph - N/A   Clear